User: anonymous   Login
Location: *
(53.4003°S, 165.3236°W)
Time: 13:32:29
(UTC+00:00)
Language:

Cosmos 1455 - Orbit

View from above orbital plane
View from above orbital plane
View from above satellite
View from above satellite

Ground track
Ground track

The orbit data is extracted from the following two-line orbital elements,

1 14032U 83037A   24103.59595376  .00010583  00000-0  31343-3 0  9994
2 14032  82.5060 134.1216 0011058 211.7802 148.2775 15.34666316239927
Epoch (UTC): 12 April 2024 14:18:10
Eccentricity: 0.0011058
inclination: 82.5060°
perigee height: 454 km
apogee height: 469 km
right ascension of ascending node: 134.1216°
argument of perigee: 211.7802°
revolutions per day: 15.34666316
mean anomaly at epoch: 148.2775°
orbit number at epoch: 23992

The dashed part of the orbit path shows where the satellite is in the earth's shadow,  

DLR